Location: Neuvy Saint Sepulchre
(46.5953°N, 1.8122°E)
Time: 09:12:01
(UTC+02:00)

ISS - Pass Details

Date: 31 March 2024
Orbit: 413 x 419 km, 51.6° (Epoch: 13 April)

Event Time Altitude Azimuth Distance (km) Brightness Sun altitude
Rises 21:38:38 0° 287° (WNW) 2,362 2.0 -13.7°
Reaches altitude 10° 21:41:17 10° 265° (W) 1,497 0.0 -14.1°
Maximum altitude 21:43:26 16° 225° (SW) 1,176 -1.2 -14.5°
Drops below altitude 10° 21:45:36 10° 184° (S) 1,493 -1.2 -14.8°
Enters shadow 21:46:01 - 179° (S) 1,612 -1.0 -14.9°
